TimeMDT,TemperatureF,Dew PointF,Humidity,Sea Level PressureIn,VisibilityMPH,Wind Direction,Wind SpeedMPH,Gust SpeedMPH,PrecipitationIn,Events,Conditions,WindDirDegrees,DateUTC
12:15 AM,28.4,26.6,93,30.27,10.0,West,4.6,-,N/A,,Scattered Clouds,270,2012-10-31 06:15:00
12:55 AM,28.4,26.6,93,30.27,10.0,West,5.8,-,N/A,,Clear,270,2012-10-31 06:55:00
1:15 AM,28.4,26.6,93,30.27,10.0,NW,5.8,-,N/A,,Scattered Clouds,310,2012-10-31 07:15:00
1:35 AM,26.6,26.6,100,30.28,10.0,WNW,4.6,-,N/A,,Mostly Cloudy,300,2012-10-31 07:35:00
1:55 AM,26.6,26.6,100,30.29,10.0,NW,8.1,-,N/A,,Mostly Cloudy,310,2012-10-31 07:55:00
2:15 AM,24.8,24.8,100,30.29,10.0,WNW,4.6,-,N/A,,Mostly Cloudy,290,2012-10-31 08:15:00
2:35 AM,26.6,24.8,93,30.29,10.0,WNW,4.6,-,N/A,,Scattered Clouds,290,2012-10-31 08:35:00
2:55 AM,26.6,24.8,93,30.29,10.0,WNW,5.8,-,N/A,,Scattered Clouds,300,2012-10-31 08:55:00
3:15 AM,24.8,24.8,100,30.29,10.0,West,4.6,-,N/A,,Clear,270,2012-10-31 09:15:00
3:35 AM,24.8,24.8,100,30.29,10.0,NW,5.8,-,N/A,,Clear,310,2012-10-31 09:35:00
3:55 AM,24.8,23.0,93,30.29,10.0,WNW,6.9,-,N/A,,Clear,300,2012-10-31 09:55:00
4:15 AM,26.6,24.8,93,30.28,10.0,WNW,4.6,-,N/A,,Mostly Cloudy,300,2012-10-31 10:15:00
4:35 AM,24.8,23.0,93,30.28,10.0,WNW,6.9,-,N/A,,Mostly Cloudy,290,2012-10-31 10:35:00
4:55 AM,24.8,23.0,93,30.27,10.0,West,6.9,-,N/A,,Scattered Clouds,270,2012-10-31 10:55:00
5:15 AM,24.8,23.0,93,30.27,10.0,WNW,8.1,-,N/A,,Clear,290,2012-10-31 11:15:00
5:35 AM,24.8,23.0,93,30.27,10.0,WNW,5.8,-,N/A,,Scattered Clouds,290,2012-10-31 11:35:00
5:55 AM,23.0,23.0,100,30.28,10.0,WNW,6.9,-,N/A,,Mostly Cloudy,300,2012-10-31 11:55:00
6:15 AM,24.8,23.0,93,30.29,10.0,WNW,6.9,-,N/A,,Mostly Cloudy,290,2012-10-31 12:15:00
6:35 AM,23.0,23.0,100,30.29,10.0,WNW,5.8,-,N/A,,Scattered Clouds,300,2012-10-31 12:35:00
6:55 AM,23.0,23.0,100,30.29,10.0,West,8.1,-,N/A,,Clear,280,2012-10-31 12:55:00
7:15 AM,23.0,23.0,100,30.29,10.0,West,8.1,-,N/A,,Clear,280,2012-10-31 13:15:00
7:35 AM,23.0,23.0,100,30.29,10.0,WNW,6.9,-,N/A,,Clear,300,2012-10-31 13:35:00
7:55 AM,23.0,23.0,100,30.29,10.0,WNW,6.9,-,N/A,,Clear,290,2012-10-31 13:55:00
8:15 AM,24.8,23.0,93,30.29,10.0,West,5.8,-,N/A,,Clear,280,2012-10-31 14:15:00
8:35 AM,26.6,24.8,93,30.29,10.0,WNW,6.9,-,N/A,,Clear,290,2012-10-31 14:35:00
8:55 AM,28.4,26.6,93,30.30,10.0,WNW,4.6,-,N/A,,Clear,290,2012-10-31 14:55:00
9:15 AM,32.0,28.4,87,30.30,10.0,WNW,4.6,-,N/A,,Clear,300,2012-10-31 15:15:00
9:55 AM,33.8,30.2,87,30.31,10.0,WNW,6.9,-,N/A,,Clear,300,2012-10-31 15:55:00
10:15 AM,37.4,30.2,75,30.31,10.0,WNW,6.9,-,N/A,,Clear,300,2012-10-31 16:15:00
10:35 AM,41.0,32.0,70,30.30,10.0,WNW,5.8,-,N/A,,Clear,300,2012-10-31 16:35:00
10:55 AM,42.8,32.0,66,30.29,10.0,WNW,3.5,-,N/A,,Clear,290,2012-10-31 16:55:00
11:15 AM,46.4,32.0,57,30.29,10.0,NW,3.5,-,N/A,,Clear,310,2012-10-31 17:15:00
11:35 AM,50.0,30.2,47,30.29,10.0,Calm,Calm,-,N/A,,Clear,0,2012-10-31 17:35:00
11:55 AM,51.8,28.4,41,30.29,10.0,Calm,Calm,-,N/A,,Clear,0,2012-10-31 17:55:00
12:15 PM,53.6,28.4,38,30.27,10.0,Calm,Calm,-,N/A,,Clear,0,2012-10-31 18:15:00
12:35 PM,55.4,23.0,29,30.27,10.0,Calm,Calm,-,N/A,,Clear,0,2012-10-31 18:35:00
12:55 PM,55.4,23.0,29,30.26,10.0,Calm,Calm,-,N/A,,Clear,0,2012-10-31 18:55:00
1:15 PM,59.0,23.0,25,30.25,10.0,NNE,5.8,-,N/A,,Clear,20,2012-10-31 19:15:00
1:35 PM,59.0,23.0,25,30.24,10.0,Calm,Calm,-,N/A,,Clear,0,2012-10-31 19:35:00
1:55 PM,59.0,24.8,27,30.23,10.0,Calm,Calm,-,N/A,,Clear,0,2012-10-31 19:55:00
2:35 PM,59.0,24.8,27,30.22,10.0,Calm,Calm,-,N/A,,Clear,0,2012-10-31 20:35:00
2:55 PM,60.8,23.0,23,30.21,10.0,South,9.2,-,N/A,,Clear,190,2012-10-31 20:55:00
3:15 PM,60.8,26.6,27,30.20,10.0,SSE,11.5,-,N/A,,Clear,150,2012-10-31 21:15:00
3:35 PM,59.0,26.6,29,30.21,10.0,South,9.2,-,N/A,,Clear,170,2012-10-31 21:35:00
3:55 PM,59.0,26.6,29,30.21,10.0,SSE,11.5,-,N/A,,Clear,150,2012-10-31 21:55:00
4:15 PM,59.0,26.6,29,30.21,10.0,SSE,8.1,-,N/A,,Scattered Clouds,150,2012-10-31 22:15:00
4:35 PM,59.0,28.4,31,30.21,10.0,SSE,6.9,-,N/A,,Scattered Clouds,150,2012-10-31 22:35:00
4:55 PM,59.0,28.4,31,30.20,10.0,SE,10.4,-,N/A,,Clear,140,2012-10-31 22:55:00
5:15 PM,57.2,28.4,33,30.20,10.0,SE,5.8,-,N/A,,Scattered Clouds,130,2012-10-31 23:15:00
5:35 PM,53.6,30.2,41,30.20,10.0,SE,6.9,-,N/A,,Mostly Cloudy,140,2012-10-31 23:35:00
6:15 PM,46.4,30.2,53,30.20,10.0,ESE,5.8,-,N/A,,Scattered Clouds,110,2012-11-01 00:15:00
6:35 PM,46.4,30.2,53,30.20,10.0,ESE,4.6,-,N/A,,Clear,120,2012-11-01 00:35:00
6:55 PM,44.6,30.2,57,30.20,10.0,ESE,5.8,-,N/A,,Clear,120,2012-11-01 00:55:00
7:15 PM,44.6,30.2,57,30.21,10.0,East,5.8,-,N/A,,Clear,80,2012-11-01 01:15:00
7:35 PM,41.0,30.2,65,30.21,10.0,Calm,Calm,-,N/A,,Clear,0,2012-11-01 01:35:00
7:55 PM,42.8,30.2,61,30.21,10.0,Calm,Calm,-,N/A,,Clear,0,2012-11-01 01:55:00
8:15 PM,39.2,30.2,70,30.20,10.0,Calm,Calm,-,N/A,,Clear,0,2012-11-01 02:15:00
8:35 PM,35.6,30.2,81,30.20,10.0,Calm,Calm,-,N/A,,Clear,0,2012-11-01 02:35:00
8:55 PM,35.6,30.2,81,30.20,10.0,Calm,Calm,-,N/A,,Clear,0,2012-11-01 02:55:00
9:15 PM,35.6,30.2,81,30.19,10.0,Calm,Calm,-,N/A,,Clear,0,2012-11-01 03:15:00
9:35 PM,33.8,28.4,81,30.19,10.0,Calm,Calm,-,N/A,,Scattered Clouds,0,2012-11-01 03:35:00
9:55 PM,32.0,28.4,87,30.19,10.0,Calm,Calm,-,N/A,,Overcast,0,2012-11-01 03:55:00
10:15 PM,32.0,30.2,93,30.19,10.0,Calm,Calm,-,N/A,,Scattered Clouds,0,2012-11-01 04:15:00
10:35 PM,32.0,30.2,93,30.19,10.0,WNW,3.5,-,N/A,,Clear,300,2012-11-01 04:35:00
10:55 PM,32.0,30.2,93,30.18,10.0,West,3.5,-,N/A,,Clear,280,2012-11-01 04:55:00
11:15 PM,32.0,30.2,93,30.18,10.0,West,4.6,-,N/A,,Clear,280,2012-11-01 05:15:00
11:35 PM,32.0,30.2,93,30.17,10.0,WNW,4.6,-,N/A,,Mostly Cloudy,300,2012-11-01 05:35:00